| time (UTC) | temp C | wind direction | speed KPH | gust KPH | rain 1hr cm | rain 24hr cm | rain mn cm | humidity % | barometer mb |
| 20260901104537 | 21 | 145 | 0.0 | 0.0 | 0.00 | 0.00 | 0.00 | 74 | 1009.4 |
| 20260901103035 | 21 | 60 | 0.0 | 0.0 | 0.00 | 0.00 | 0.00 | 73 | 1009.3 |
| 20260901101534 | 21 | 60 | 0.0 | 0.0 | 0.00 | 0.00 | 0.00 | 73 | 1009.5 |
| 20260901100032 | 21 | 226 | 0.0 | 0.0 | 0.00 | 0.00 | 0.00 | 72 | 1009.6 |
| 20260901094531 | 22 | 258 | 0.0 | 6.4 | 0.00 | 0.00 | 0.00 | 68 | 1009.7 |
| 20260901093028 | 23 | 281 | 3.2 | 8.0 | 0.00 | 0.00 | 0.00 | 67 | 1009.7 |
| 20260901091528 | 23 | 252 | 6.4 | 14.5 | 0.00 | 0.00 | 0.00 | 68 | 1010.2 |
| 20260901090026 | 23 | 258 | 3.2 | 11.3 | 0.00 | 0.00 | 0.00 | 70 | 1010.3 |
| 20260901084525 | 22 | 221 | 3.2 | 4.8 | 0.00 | 0.00 | 0.00 | 80 | 1010.5 |
| 20260901083023 | 22 | 243 | 1.6 | 8.0 | 0.00 | 0.00 | 0.00 | 81 | 1010.6 |
| 20260901081529 | 22 | 233 | 0.0 | 0.0 | 0.00 | 0.00 | 0.00 | 78 | 1009.9 |
| 20260901080024 | 22 | 217 | 0.0 | 3.2 | 0.00 | 0.00 | 0.00 | 78 | 1010.1 |
| 20260901074518 | 23 | 285 | 1.6 | 3.2 | 0.00 | 0.00 | 0.00 | 73 | 1010.1 |
| 20260901073019 | 22 | 253 | 1.6 | 4.8 | 0.00 | 0.00 | 0.00 | 78 | 1010.3 |
| 20260901071515 | 23 | 244 | 1.6 | 4.8 | 0.00 | 0.00 | 0.00 | 72 | 1010.2 |
| 20260901070015 | 22 | 285 | 1.6 | 8.0 | 0.00 | 0.00 | 0.00 | 76 | 1010.1 |
| 20260901064514 | 22 | 291 | 0.0 | 3.2 | 0.00 | 0.00 | 0.00 | 76 | 1009.9 |
| 20260901063025 | 23 | 257 | 3.2 | 4.8 | 0.00 | 0.00 | 0.00 | 76 | 1009.9 |
| 20260901061511 | 22 | 221 | 6.4 | 8.0 | 0.00 | 0.00 | 0.00 | 78 | 1010.1 |
| 20260901060009 | 23 | 28 | 6.4 | 9.7 | 0.00 | 0.00 | 0.00 | 76 | 1009.0 |
| 20260901054513 | 23 | 268 | 0.0 | 4.8 | 0.00 | 0.00 | 0.00 | 73 | 1009.9 |
| 20260901053002 | 24 | 8 | 0.0 | 0.0 | 0.00 | 0.00 | 0.00 | 73 | 1009.8 |
| 20260901051501 | 24 | 232 | 0.0 | 0.0 | 0.00 | 0.00 | 0.00 | 71 | 1009.8 |
| 20260901050058 | 24 | 43 | 0.0 | 4.8 | 0.00 | 0.00 | 0.00 | 72 | 1009.6 |
| 20260901044559 | 24 | 20 | 0.0 | 0.0 | 0.00 | 0.00 | 0.00 | 71 | 1009.6 |
| 20260901043059 | 25 | 91 | 0.0 | 3.2 | 0.00 | 0.00 | 0.00 | 70 | 1009.8 |
| 20260901041556 | 25 | 30 | 4.8 | 8.0 | 0.00 | 0.00 | 0.00 | 70 | 1010.0 |
| 20260901040111 | 25 | 268 | 1.6 | 8.0 | 0.00 | 0.00 | 0.00 | 68 | 1010.4 |
| 20260901034555 | 25 | 234 | 1.6 | 4.8 | 0.00 | 0.00 | 0.00 | 67 | 1010.1 |
| 20260901033056 | 25 | 51 | 3.2 | 6.4 | 0.00 | 0.00 | 0.00 | 70 | 1009.8 |
| 20260901031553 | 25 | 83 | 6.4 | 11.3 | 0.00 | 0.00 | 0.00 | 69 | 1009.4 |
| 20260901030053 | 25 | 146 | 1.6 | 3.2 | 0.00 | 0.00 | 0.00 | 67 | 1009.9 |
| 20260901024553 | 26 | 225 | 1.6 | 4.8 | 0.00 | 0.00 | 0.00 | 67 | 1010.3 |
| 20260901023053 | 26 | 231 | 3.2 | 3.2 | 0.00 | 0.00 | 0.00 | 64 | 1010.3 |
| 20260901021552 | 26 | 193 | 3.2 | 4.8 | 0.00 | 0.00 | 0.00 | 65 | 1009.9 |
| 20260901020051 | 26 | 167 | 3.2 | 6.4 | 0.00 | 0.00 | 0.00 | 64 | 1009.6 |
| 20260901014553 | 27 | 100 | 0.0 | 3.2 | 0.00 | 0.00 | 0.00 | 61 | 1009.1 |
| 20260901013107 | 27 | 103 | 1.6 | 3.2 | 0.00 | 0.00 | 0.00 | 61 | 1008.8 |
| 20260901011551 | 27 | 92 | 3.2 | 4.8 | 0.00 | 0.00 | 0.00 | 59 | 1008.5 |
| 20260901010052 | 28 | 68 | 1.6 | 4.8 | 0.00 | 0.00 | 0.00 | 58 | 1008.4 |
| 20260901004549 | 29 | 101 | 3.2 | 4.8 | 0.00 | 0.00 | 0.00 | 53 | 1008.3 |
| 20260901003049 | 30 | 88 | 3.2 | 9.7 | 0.00 | 0.00 | 0.00 | 51 | 1008.3 |
| 20260901001549 | 31 | 82 | 4.8 | 9.7 | 0.00 | 0.00 | 0.00 | 50 | 1008.5 |
| 20260901000048 | 31 | 84 | 8.0 | 11.3 | 0.00 | 0.00 | 0.00 | 47 | 1008.6 |
| 20260831234555 | 32 | 98 | 8.0 | 14.5 | 0.00 | 0.00 | 0.00 | 44 | 1008.6 |
| 20260831233046 | 32 | 72 | 8.0 | 12.9 | 0.00 | 0.00 | 0.00 | 44 | 1008.6 |
| 20260831231547 | 32 | 86 | 9.7 | 14.5 | 0.00 | 0.00 | 0.00 | 44 | 1008.6 |
| 20260831230046 | 32 | 96 | 8.0 | 16.1 | 0.00 | 0.00 | 0.00 | 46 | 1008.8 |
| 20260831224545 | 32 | 81 | 9.7 | 14.5 | 0.00 | 0.00 | 0.00 | 45 | 1008.7 |
| 20260831223045 | 32 | 98 | 9.7 | 19.3 | 0.00 | 0.00 | 0.00 | 45 | 1008.8 |
| 20260831221555 | 32 | 83 | 8.0 | 14.5 | 0.00 | 0.00 | 0.00 | 44 | 1008.8 |
| 20260831220045 | 31 | 120 | 8.0 | 11.3 | 0.00 | 0.00 | 0.00 | 47 | 1008.8 |
| 20260831214544 | 31 | 110 | 9.7 | 16.1 | 0.00 | 0.00 | 0.00 | 46 | 1008.8 |
| 20260831213044 | 32 | 75 | 11.3 | 20.9 | 0.00 | 0.00 | 0.00 | 45 | 1008.8 |
| 20260831211542 | 32 | 78 | 9.7 | 17.7 | 0.00 | 0.00 | 0.00 | 46 | 1009.0 |
| 20260831210040 | 32 | 106 | 12.9 | 22.5 | 0.00 | 0.00 | 0.00 | 47 | 1009.1 |
| 20260831204541 | 32 | 103 | 11.3 | 19.3 | 0.00 | 0.00 | 0.00 | 45 | 1009.3 |
| 20260831203055 | 32 | 101 | 14.5 | 24.1 | 0.00 | 0.00 | 0.00 | 46 | 1009.3 |
| 20260831201539 | 32 | 103 | 16.1 | 27.4 | 0.00 | 0.00 | 0.00 | 46 | 1009.5 |
| 20260831200117 | 32 | 115 | 16.1 | 25.7 | 0.00 | 0.00 | 0.00 | 46 | 1009.7 |
| 20260831194539 | 32 | 82 | 14.5 | 20.9 | 0.00 | 0.00 | 0.00 | 43 | 1009.8 |
| 20260831193037 | 32 | 148 | 9.7 | 19.3 | 0.00 | 0.00 | 0.00 | 40 | 1009.8 |
| 20260831191536 | 33 | 84 | 3.2 | 14.5 | 0.00 | 0.00 | 0.00 | 38 | 1009.9 |
| 20260831190039 | 32 | 169 | 11.3 | 17.7 | 0.00 | 0.00 | 0.00 | 37 | 1010.0 |
| 20260831184534 | 32 | 129 | 6.4 | 16.1 | 0.00 | 0.00 | 0.00 | 37 | 1010.2 |
| 20260831183030 | 32 | 106 | 0.0 | 14.5 | 0.00 | 0.00 | 0.00 | 40 | 1010.3 |
| 20260831181532 | 32 | 208 | 11.3 | 19.3 | 0.00 | 0.00 | 0.00 | 39 | 1010.3 |
| 20260831180027 | 31 | 103 | 4.8 | 12.9 | 0.00 | 0.00 | 0.00 | 39 | 1010.4 |
| 20260831174525 | 31 | 102 | 4.8 | 16.1 | 0.00 | 0.00 | 0.00 | 42 | 1010.6 |
| 20260831173021 | 31 | 270 | 4.8 | 12.9 | 0.00 | 0.00 | 0.00 | 43 | 1010.8 |
| 20260831171520 | 30 | 141 | 3.2 | 16.1 | 0.00 | 0.00 | 0.00 | 45 | 1011.0 |
| 20260831170017 | 30 | 184 | 11.3 | 22.5 | 0.00 | 0.00 | 0.00 | 43 | 1010.9 |
| 20260831164518 | 30 | 211 | 6.4 | 12.9 | 0.00 | 0.00 | 0.00 | 47 | 1011.0 |
| 20260831163017 | 29 | 241 | 4.8 | 11.3 | 0.00 | 0.00 | 0.00 | 49 | 1011.0 |
| 20260831161508 | 28 | 268 | 4.8 | 9.7 | 0.00 | 0.00 | 0.00 | 53 | 1011.0 |
| 20260831160005 | 27 | 285 | 4.8 | 11.3 | 0.00 | 0.00 | 0.00 | 54 | 1010.9 |
| 20260831154503 | 27 | 281 | 1.6 | 11.3 | 0.00 | 0.00 | 0.00 | 56 | 1011.1 |
| 20260831153100 | 26 | 319 | 0.0 | 9.7 | 0.00 | 0.00 | 0.00 | 58 | 1011.0 |
| 20260831151558 | 26 | 44 | 6.4 | 11.3 | 0.00 | 0.00 | 0.00 | 59 | 1010.8 |
| 20260831150056 | 25 | 311 | 4.8 | 12.9 | 0.00 | 0.00 | 0.00 | 62 | 1010.9 |
| 20260831144556 | 24 | 293 | 4.8 | 14.5 | 0.00 | 0.00 | 0.00 | 64 | 1011.0 |
| 20260831143057 | 23 | 319 | 4.8 | 16.1 | 0.00 | 0.00 | 0.00 | 64 | 1011.1 |
| 20260831141605 | 23 | 311 | 8.0 | 12.9 | 0.00 | 0.00 | 0.00 | 68 | 1011.2 |
| 20260831140053 | 22 | 300 | 4.8 | 11.3 | 0.00 | 0.00 | 0.00 | 73 | 1011.1 |
| 20260831134554 | 22 | 292 | 6.4 | 9.7 | 0.00 | 0.00 | 0.00 | 74 | 1011.1 |
| 20260831133052 | 21 | 288 | 3.2 | 8.0 | 0.00 | 0.00 | 0.00 | 78 | 1011.1 |
| 20260831131555 | 20 | 289 | 0.0 | 4.8 | 0.00 | 0.00 | 0.00 | 83 | 1011.1 |
| 20260831130053 | 20 | 235 | 1.6 | 4.8 | 0.00 | 0.00 | 0.00 | 85 | 1011.0 |
| 20260831124548 | 18 | 304 | 1.6 | 3.2 | 0.00 | 0.00 | 0.00 | 87 | 1010.8 |
| 20260831123047 | 18 | 309 | 3.2 | 4.8 | 0.00 | 0.00 | 0.00 | 86 | 1010.6 |
| 20260831121547 | 18 | 233 | 1.6 | 4.8 | 0.00 | 0.00 | 0.00 | 86 | 1010.5 |
| 20260831120047 | 18 | 231 | 3.2 | 4.8 | 0.00 | 0.00 | 0.00 | 86 | 1010.3 |
| 20260831114544 | 19 | 199 | 6.4 | 9.7 | 0.00 | 0.00 | 0.00 | 86 | 1010.2 |
| 20260831113047 | 19 | 212 | 3.2 | 6.4 | 0.00 | 0.00 | 0.00 | 84 | 1009.9 |
| 20260831111537 | 20 | 162 | 6.4 | 8.0 | 0.00 | 0.00 | 0.00 | 81 | 1009.9 |
| 20260831110035 | 20 | 328 | 4.8 | 8.0 | 0.00 | 0.00 | 0.00 | 81 | 1008.7 |